Simultaneous Nadir Overpasses (SNOs) Predictions

Prediction of SNOs between NOAA-19 and NPP Satellite Orbit:

Table of predicted SNOs for the next 14.0 days since TLE Epoch: 9/23/2023
Index Date (NOAA-19) Time (NOAA-19) Lat,Lon (NOAA-19) SZA (NOAA-19 ) Date (NPP) Time (NPP) Lat,Lon (NPP) SZA (NPP ) Distance(km) Time Diff (sec)
1 09/23/2023 01:49:14 74.72, 140.19 74.83 09/23/2023 01:49:23 74.71, 140.27 74.81 2.78 9
2 09/23/2023 02:40:17 -74.73, -52.55 105.16 09/23/2023 02:40:07 -74.75, -52.52 105.14 2.25 10
3 09/23/2023 03:31:11 74.76, 114.81 74.89 09/23/2023 03:30:53 74.77, 114.74 74.90 2.22 18
4 09/23/2023 04:22:15 -74.77, -77.93 105.10 09/23/2023 04:21:37 -74.76, -77.92 105.10 1.25 38
5 09/23/2023 05:13:10 74.75, 89.30 74.91 09/23/2023 05:12:23 74.77, 89.34 74.94 2.61 47
6 09/23/2023 06:04:14 -74.76,-103.45 105.08 09/23/2023 06:03:07 -74.77,-103.32 105.06 3.90 67
7 09/23/2023 06:55:08 74.79, 63.92 74.97 09/23/2023 06:53:53 74.78, 63.94 74.98 1.25 75



Historial Predications of SNOs between NOAA-19 and NPP
